Location: Be?i?
(36.9044°N, 30.1006°E)
Time: 13:12:48
(UTC+00:00)

IRS-1C Rocket - Pass Details

Date: 05 August 2024
Orbit: 799 x 805 km, 98.8° (Epoch: 08 September)

Event Time Altitude Azimuth Distance (km) Brightness Sun altitude
Exits shadow 19:12:52 44° 179° (S) 1,106 4.5 -22.7°
Maximum altitude 19:14:36 78° 257° (WSW) 825 4.1 -23.0°
Drops below altitude 10° 19:19:53 10° 344° (NNW) 2,391 7.4 -23.7°
Sets 19:22:14 0° 346° (NNW) 3,326 8.3 -24.0°
